Location: Caltech
(34.1382°N, 118.1253°W)
Time: 00:16:32
(UTC-08:00)

Cosmos 2219 Rocket - Visible Passes

Search period start: 27 November 2014 00:00
Search period end: 07 December 2014 00:00
Orbit: 827 x 848 km, 71.0° (Epoch: 26 November)

Date Brightness Start Highest point End Pass type
(mag) Time Alt. Az. Time Alt. Az. Time Alt. Az.
05 Dec 4.1 18:11:21 10° NNE 18:12:08 13° NNE 18:12:08 13° NNE visible
06 Dec 3.8 17:55:16 10° NNE 17:57:13 15° NE 17:57:13 15° NE visible
06 Dec 4.3 19:37:40 10° NNW 19:39:01 18° NNW 19:39:01 18° NNW visible
